Wind_Speed
9 10 10 10 10 11 11 12 12 12 12 12 13 13 13 14 14 14 15 15 16 16 17 17 18 19 19 20 20 21 21 21 21 21 21 21 22 22 21 22 22 22 22
10 10 10 11 11 11 12 12 13 13 13 14 14 14 14 15 15 15 16 16 17 18 19 19 20 20 21 21 22 22 23 23 23 23 23 23 23 23 23 23 23 23 23
11 11 11 11 12 12 13 13 13 13 14 14 14 15 15 16 16 17 17 18 19 19 20 20 21 21 22 22 23 24 24 24 24 24 24 24 24 24 24 25 25 24 24
11 11 12 12 12 13 13 14 14 14 14 15 15 16 16 17 17 18 18 19 19 20 21 21 22 22 22 23 23 24 25 25 25 25 25 25 25 25 25 25 25 25 25
10 10 11 11 12 13 13 14 14 15 15 16 16 17 18 18 19 19 20 20 21 21 22 22 22 23 23 24 24 25 25 25 25 25 26 26 26 26 26 26 26 26 26
10 10 11 11 12 13 14 14 15 15 16 17 17 18 19 19 20 20 21 21 22 22 22 22 23 23 24 24 25 25 25 25 25 26 26 26 26 26 26 26 27 27 26
11 11 12 12 13 14 14 15 16 16 17 17 18 19 19 20 21 21 21 22 22 23 23 24 24 24 25 25 25 26 26 26 26 27 27 27 27 28 28 27 27 27 27
11 12 12 13 14 14 15 15 16 17 17 18 19 19 20 21 21 22 23 23 24 24 25 25 25 26 26 26 27 27 27 28 28 28 29 29 29 29 29 29 29 29 29
12 13 13 14 15 15 16 17 17 18 18 19 19 20 21 21 22 23 24 25 25 26 26 27 27 27 28 28 28 29 29 30 30 30 30 31 31 31 31 31 31 31 31
13 14 15 15 16 16 17 17 18 19 19 20 20 21 22 22 23 24 25 26 27 27 28 28 29 29 29 29 30 30 31 31 32 32 32 33 33 33 33 33 33 33 33
15 15 16 17 17 17 18 19 19 19 20 21 21 22 23 23 24 25 26 27 27 28 29 29 30 30 31 31 31 32 32 33 33 33 34 34 35 35 35 35 35 36 36
17 17 18 19 19 19 19 20 20 20 21 22 22 23 24 25 25 26 27 27 28 29 29 30 31 32 32 33 33 33 34 34 35 35 35 36 37 37 37 38 38 38 38
20 20 20 21 21 21 21 21 21 21 22 23 23 24 25 25 26 27 28 28 29 29 30 30 31 32 33 33 34 35 35 36 36 37 37 38 38 39 39 40 40 41 41
22 22 22 22 22 22 22 22 22 22 23 24 24 25 26 26 27 28 28 29 29 30 31 31 32 33 34 34 35 35 36 36 37 38 39 39 40 41 41 42 42 43 43
24 24 24 24 24 23 23 23 23 23 24 25 25 26 26 27 28 29 29 30 30 31 32 33 33 34 35 35 36 36 37 37 38 39 39 40 40 41 42 42 43 44 44
25 25 25 25 25 25 25 25 25 25 25 26 26 27 27 28 28 29 30 31 32 32 33 34 35 35 36 36 37 37 38 38 39 39 40 40 41 41 42 43 43 44 45
26 26 26 26 26 26 26 26 26 26 26 26 27 28 28 29 29 30 31 32 32 33 34 35 36 36 37 37 38 38 38 39 40 40 41 42 42 43 43 43 44 45 45
27 27 28 27 27 27 27 27 27 27 27 27 28 28 29 30 30 31 32 33 34 35 36 36 37 37 38 38 38 38 38 39 40 40 41 42 42 43 44 44 44 45 45
28 28 28 28 28 28 28 28 27 27 28 28 29 29 30 31 31 32 33 34 35 36 37 37 38 38 38 38 38 38 39 40 41 41 42 43 43 44 45 46 46 46 47
29 29 29 29 29 28 28 28 28 28 29 29 30 30 31 32 33 34 35 36 37 37 37 38 38 38 38 38 38 39 40 40 42 42 43 44 45 46 47 48 48 49 49
30 30 30 30 30 29 29 29 29 29 29 30 31 31 32 33 35 35 36 37 38 38 38 39 39 40 40 40 40 40 41 42 43 44 45 46 47 48 48 49 49 50 51
31 31 31 31 31 30 30 30 30 30 30 31 32 33 34 35 36 36 38 39 39 40 40 40 41 41 42 43 43 43 42 43 44 45 46 47 49 50 51 52 52 53 54
32 32 32 32 31 31 31 31 31 31 32 33 34 35 36 37 38 38 39 40 41 41 42 42 43 43 44 45 46 46 46 45 45 45 47 49 51 52 53 54 55 56 57
33 33 33 32 32 31 31 32 32 33 34 35 36 37 38 38 39 40 41 42 43 43 43 44 44 45 46 46 48 49 50 51 50 48 47 49 51 53 54 56 57 58 60
34 33 33 33 32 32 32 33 34 35 36 36 37 38 39 40 41 42 43 43 44 45 45 45 46 47 48 49 50 51 52 53 55 55 52 51 52 53 55 57 59 60 62
33 33 33 33 33 33 34 34 35 36 37 38 39 40 41 42 43 43 44 45 46 46 47 47 48 49 51 52 53 54 54 55 56 58 58 57 56 55 57 58 60 62 63
Wind_Direction
238 240 243 246 249 253 256 260 264 267 270 272 275 277 280 281 282 283 285 285 285 285 285 285 284 284 284 283 281 280 280 280 279 279 278 277 275 273 272 270 269 267 265
241 246 247 249 252 256 260 263 265 267 268 270 273 275 277 279 280 281 282 283 283 283 283 284 283 283 282 281 280 279 279 279 278 277 276 275 273 272 270 269 268 266 264
246 251 253 254 257 259 262 265 267 269 271 272 274 276 277 278 280 281 282 283 283 284 284 283 283 282 282 281 281 280 280 279 278 277 275 274 272 270 269 268 267 266 265
250 255 257 258 260 261 264 266 269 271 273 275 276 278 278 279 280 281 282 283 284 285 285 285 284 283 282 282 282 281 281 280 278 277 276 274 272 271 270 268 267 266 265
254 258 260 263 263 265 267 269 271 273 275 276 277 278 279 280 281 283 284 285 285 285 285 284 284 283 283 282 282 281 281 280 278 277 276 275 273 272 271 270 269 268 267
261 263 266 267 268 270 272 273 275 276 277 278 279 279 280 281 282 283 284 285 285 285 285 285 284 284 284 283 283 283 282 281 279 278 276 275 275 274 272 272 271 270 269
265 268 270 272 273 274 275 276 277 279 280 281 282 283 283 284 284 284 285 285 286 286 286 286 285 284 284 283 283 283 282 282 281 279 278 277 275 275 274 274 273 271 271
269 271 273 275 276 277 277 279 280 281 282 284 284 285 285 285 285 285 286 286 286 286 286 287 286 285 284 284 283 282 282 281 280 279 278 277 276 275 274 274 273 272 271
271 273 275 276 277 278 279 280 282 283 284 284 285 286 286 286 286 287 287 287 287 287 287 287 286 286 285 284 284 283 282 281 280 279 278 277 276 275 275 274 274 273 272
274 276 278 280 280 280 281 282 283 284 285 286 287 287 288 288 288 288 288 288 288 288 287 287 286 285 285 284 284 283 282 281 280 279 277 276 275 275 274 274 273 273 272
277 278 281 283 284 284 284 285 285 285 285 286 287 288 288 289 289 289 289 288 288 288 288 287 286 286 285 284 284 283 282 282 281 279 278 276 275 274 274 273 273 272 272
279 280 282 284 285 285 285 286 286 286 286 286 287 288 289 290 290 290 290 289 289 289 288 288 288 287 287 286 285 284 283 282 281 279 278 277 275 274 274 273 272 272 271
281 281 283 284 284 284 284 285 286 286 286 287 288 290 291 291 291 292 291 291 291 290 290 290 290 290 289 288 287 286 285 283 281 280 278 277 276 274 273 273 272 271 270
281 283 283 284 284 284 284 285 285 286 287 288 289 290 291 291 292 293 293 292 292 292 291 291 291 291 290 290 289 287 286 284 283 281 280 278 277 276 275 274 273 272 271
281 282 283 283 283 282 283 284 285 286 287 289 290 290 291 292 293 294 293 293 293 293 292 292 291 291 291 290 290 289 288 287 285 284 282 281 279 278 277 276 275 274 273
280 281 282 282 282 282 282 284 285 286 287 288 290 290 291 291 292 293 293 293 293 293 293 293 293 292 292 291 291 290 289 287 286 285 284 283 282 280 279 278 277 276 275
279 280 280 280 280 280 281 283 284 286 287 288 289 290 291 291 291 292 292 293 293 294 294 294 294 294 293 292 291 290 289 288 286 285 284 283 283 282 280 279 278 278 277
279 279 279 279 279 279 281 283 284 285 286 287 289 290 290 291 292 292 293 294 294 295 294 294 294 293 293 292 291 290 290 289 288 287 286 285 284 283 282 281 280 279 278
278 278 277 277 277 278 280 281 282 283 284 286 288 289 290 290 291 292 294 295 295 295 295 294 293 293 292 292 291 290 289 289 288 287 287 286 285 284 283 282 281 280 279
277 277 276 276 276 278 278 279 280 282 283 285 287 288 290 291 292 293 294 295 296 296 295 294 293 292 291 290 290 289 289 288 288 287 286 286 285 284 284 283 283 282 281
277 276 275 274 275 276 276 276 278 280 282 284 286 288 290 292 293 294 295 295 296 296 295 294 293 292 291 290 289 288 288 288 287 287 286 286 285 285 284 284 283 283 282
275 274 274 273 274 274 274 275 276 279 281 284 287 289 291 292 293 294 295 295 295 295 295 294 293 293 292 291 290 288 287 287 287 288 287 287 287 286 286 285 284 283 282
273 273 272 272 272 272 273 274 276 279 282 284 287 290 291 293 294 295 295 295 296 296 296 295 294 294 293 293 292 290 289 286 284 285 286 287 287 287 286 286 285 285 284
273 272 271 270 270 271 272 274 277 280 283 285 288 291 292 293 295 296 296 297 297 297 297 296 296 296 295 294 294 293 292 291 288 285 284 285 285 285 285 285 285 285 284
272 271 270 269 269 271 272 274 278 281 284 287 289 291 293 294 295 296 297 298 298 297 297 297 297 297 296 295 295 294 294 293 292 291 289 287 287 286 286 286 285 285 284
269 269 268 268 269 271 273 276 279 282 285 287 289 291 293 295 296 297 297 298 298 298 298 298 297 297 296 296 295 295 294 294 293 293 292 291 289 289 288 287 287 286 285
Height
5873 5874 5874 5875 5875 5875 5876 5876 5876 5876 5876 5876 5876 5875 5875 5875 5875 5874 5874 5874 5873 5873 5873 5872 5872 5871 5871 5870 5870 5870 5869 5869 5869 5868 5868 5868 5868 5867 5867 5867 5867 5867 5867
5872 5872 5873 5873 5873 5874 5874 5874 5874 5874 5874 5874 5873 5873 5873 5872 5872 5872 5871 5871 5871 5870 5870 5869 5869 5868 5867 5867 5866 5866 5865 5865 5865 5864 5864 5864 5864 5863 5863 5863 5863 5863 5863
5870 5871 5871 5871 5871 5871 5872 5872 5871 5871 5871 5871 5871 5870 5870 5870 5869 5869 5868 5868 5867 5867 5866 5866 5865 5864 5864 5863 5863 5862 5862 5861 5861 5860 5860 5860 5859 5859 5859 5859 5859 5858 5858
5868 5869 5869 5869 5869 5869 5869 5869 5869 5869 5869 5868 5868 5868 5867 5867 5866 5866 5865 5864 5864 5863 5863 5862 5861 5861 5860 5860 5859 5858 5858 5857 5857 5856 5856 5855 5855 5855 5855 5854 5854 5854 5854
5867 5867 5867 5867 5867 5867 5867 5867 5867 5866 5866 5866 5865 5865 5864 5864 5863 5862 5862 5861 5860 5860 5859 5858 5858 5857 5857 5856 5855 5855 5854 5853 5853 5852 5852 5851 5851 5851 5850 5850 5850 5850 5850
5865 5865 5865 5865 5865 5865 5865 5864 5864 5863 5863 5862 5862 5861 5861 5860 5860 5859 5858 5858 5857 5856 5855 5855 5854 5853 5852 5852 5851 5850 5850 5849 5849 5848 5848 5847 5847 5846 5846 5846 5845 5845 5845
5863 5863 5863 5863 5863 5863 5862 5862 5861 5861 5860 5859 5859 5858 5857 5857 5856 5855 5855 5854 5853 5852 5851 5851 5850 5849 5848 5848 5847 5846 5846 5845 5845 5844 5843 5843 5842 5842 5842 5841 5841 5841 5841
5861 5861 5861 5861 5861 5860 5860 5859 5859 5858 5857 5856 5855 5855 5854 5853 5852 5851 5851 5850 5849 5848 5847 5847 5846 5845 5844 5843 5842 5842 5841 5840 5840 5839 5839 5838 5838 5837 5837 5836 5836 5836 5836
5859 5859 5859 5859 5858 5858 5857 5856 5855 5855 5854 5853 5852 5851 5850 5849 5848 5847 5846 5845 5845 5844 5843 5842 5841 5840 5839 5838 5837 5837 5836 5835 5834 5834 5833 5833 5832 5832 5831 5831 5831 5830 5830
5857 5857 5856 5856 5855 5854 5854 5853 5852 5851 5850 5849 5848 5847 5846 5845 5844 5843 5842 5841 5840 5839 5838 5837 5836 5835 5834 5833 5832 5831 5830 5829 5829 5828 5828 5827 5827 5826 5826 5825 5825 5825 5824
5854 5854 5853 5852 5852 5851 5850 5849 5848 5847 5846 5845 5844 5843 5842 5841 5839 5838 5837 5836 5835 5834 5832 5831 5830 5829 5828 5827 5826 5825 5824 5823 5823 5822 5821 5821 5820 5819 5819 5818 5818 5818 5818
5851 5850 5850 5849 5848 5847 5846 5845 5844 5843 5842 5841 5839 5838 5837 5836 5835 5833 5832 5831 5829 5828 5827 5826 5824 5823 5822 5821 5820 5819 5818 5817 5816 5815 5814 5813 5813 5812 5811 5811 5811 5810 5810
5847 5846 5846 5845 5844 5843 5842 5841 5840 5838 5837 5836 5835 5834 5832 5831 5830 5828 5827 5825 5824 5823 5821 5820 5818 5817 5816 5814 5813 5812 5811 5809 5808 5807 5806 5805 5804 5804 5803 5803 5802 5802 5802
5843 5842 5842 5841 5840 5839 5838 5836 5835 5834 5832 5831 5830 5829 5827 5826 5824 5823 5821 5820 5818 5817 5815 5814 5812 5810 5809 5807 5806 5804 5803 5802 5800 5799 5797 5797 5796 5795 5794 5794 5793 5793 5793
5838 5838 5837 5836 5835 5834 5833 5831 5830 5829 5828 5826 5825 5823 5822 5820 5818 5817 5815 5814 5812 5810 5809 5807 5805 5804 5802 5800 5799 5797 5795 5794 5792 5791 5789 5788 5787 5786 5785 5785 5784 5783 5783
5834 5833 5832 5831 5830 5829 5828 5826 5825 5824 5822 5821 5819 5818 5816 5814 5813 5811 5809 5807 5806 5804 5802 5800 5798 5797 5795 5793 5791 5789 5787 5786 5784 5782 5780 5779 5778 5777 5776 5775 5774 5773 5773
5829 5827 5826 5825 5824 5823 5822 5821 5819 5818 5817 5815 5814 5812 5810 5809 5807 5805 5803 5801 5799 5797 5795 5793 5791 5789 5787 5785 5783 5781 5779 5777 5775 5773 5772 5770 5768 5767 5766 5765 5764 5763 5762
5823 5822 5821 5820 5819 5817 5816 5815 5814 5812 5811 5809 5808 5806 5805 5803 5801 5799 5797 5795 5792 5790 5788 5786 5784 5781 5779 5777 5775 5773 5771 5769 5766 5764 5762 5761 5759 5757 5756 5755 5754 5752 5751
5817 5816 5815 5814 5813 5811 5810 5809 5808 5806 5805 5804 5802 5800 5799 5797 5795 5793 5790 5788 5785 5783 5781 5778 5776 5774 5771 5769 5767 5765 5762 5760 5758 5755 5753 5751 5749 5747 5745 5744 5742 5741 5740
5811 5810 5809 5808 5807 5805 5804 5803 5802 5801 5799 5798 5796 5794 5792 5790 5788 5786 5783 5781 5778 5775 5773 5770 5768 5765 5763 5761 5759 5757 5754 5751 5749 5746 5744 5741 5739 5737 5735 5733 5731 5729 5728
5804 5803 5802 5801 5800 5799 5798 5797 5796 5795 5793 5792 5790 5788 5786 5784 5781 5779 5776 5773 5770 5768 5765 5762 5760 5757 5754 5753 5751 5749 5746 5743 5740 5737 5734 5731 5729 5726 5724 5721 5719 5717 5715
5798 5797 5796 5795 5794 5793 5792 5791 5790 5788 5787 5785 5783 5781 5779 5777 5774 5771 5768 5766 5763 5760 5757 5754 5751 5748 5745 5742 5740 5739 5737 5735 5730 5727 5724 5720 5717 5714 5712 5709 5706 5704 5702
5791 5790 5789 5788 5787 5786 5785 5785 5783 5782 5780 5779 5777 5774 5772 5769 5766 5764 5760 5757 5754 5751 5748 5745 5741 5738 5735 5732 5729 5726 5724 5724 5722 5720 5715 5710 5706 5702 5699 5696 5693 5689 5687
5784 5783 5782 5781 5780 5780 5779 5778 5776 5775 5773 5771 5769 5766 5764 5761 5758 5755 5752 5749 5745 5742 5738 5735 5731 5728 5724 5721 5717 5713 5710 5708 5706 5707 5706 5700 5695 5691 5687 5683 5679 5675 5672
5777 5776 5775 5774 5774 5773 5772 5771 5769 5768 5766 5764 5761 5758 5756 5753 5750 5746 5743 5739 5736 5732 5728 5725 5721 5717 5713 5709 5706 5702 5698 5694 5690 5688 5689 5687 5683 5678 5674 5669 5665 5660 5656
5769 5769 5768 5767 5767 5766 5764 5763 5762 5760 5758 5756 5753 5750 5747 5744 5741 5737 5733 5729 5726 5722 5718 5714 5710 5706 5702 5697 5693 5689 5685 5681 5676 5672 5670 5669 5667 5664 5659 5654 5649 5644 5639